English version Home page |
Updated on June 26, 2020 |
プロフィール
|
軌道要素Epoch 2018 Oct. 9.0 TT = JDT 2458400.5 T 2018 Oct. 19.43667 TT Rudenko q 3.8151332 (2000.0) P Q n 0.10333573 Peri. 26.94401 +0.98859111 +0.11866241 a 4.4974779 Node 325.84391 -0.14969476 +0.84232610 e 0.1517172 Incl. 9.51110 +0.01670626 +0.52574326 P 9.54 From 389 observations 2008 July 28-2019 Nov. 19, mean residual 0".6.
|
光度変化m1 = 13.5 + 5 logΔ + 10.0 log r ※ 灰色の曲線は、m1 = -2 + 5 logΔ + 30 log r(t + 200) の光度曲線です。
|
軌道要素はM.P.E.C. 2020-M07に掲載されたものです。
|